[TLELIST] Archives

 

[TLELIST] Current TLEs

May 19th 2023 PDT

HST 1 20580U 90037B 23139.23447998 .00003083 00000-0 15956-3 0 9991 2 20580 28.4689 100.6171 0002597 68.0548 320.9566 15.13054061617331 ISS (ZARYA) 1 25544U 98067A 23139.38731668 .00045234 00000-0 79559-3 0 9996 2 25544 51.6398 111.2823 0005007 354.8410 101.9150 15.50006007397324 CXO 1 25867U 99040B 23141.51222905 .00000497 00000-0 00000-0 0 9997 2 25867 37.8467 200.3305 9053398 259.5125 359.5762 0.37810855 13079 ...Continue Reading

[TLELIST] Current TLEs

May 18th 2023 PDT

HST 1 20580U 90037B 23138.12375038 .00003271 00000-0 16995-3 0 9996 2 20580 28.4686 108.0055 0002571 57.0652 29.7892 15.13047566617166 ISS (ZARYA) 1 25544U 98067A 23138.36523545 .00011315 00000-0 20377-3 0 9993 2 25544 51.6402 116.3446 0006653 0.6580 148.8050 15.50291838397168 CXO 1 25867U 99040B 23138.86991982 .00000447 00000-0 00000-0 0 9994 2 25867 37.8749 200.6888 9051795 259.2103 359.8911 0.37811130 13079 ...Continue Reading

[TLELIST] Current TLEs

May 18th 2023 PDT

HST 1 20580U 90037B 23138.12375038 .00003271 00000-0 16995-3 0 9996 2 20580 28.4686 108.0055 0002571 57.0652 29.7892 15.13047566617166 ISS (ZARYA) 1 25544U 98067A 23138.36523545 .00011315 00000-0 20377-3 0 9993 2 25544 51.6402 116.3446 0006653 0.6580 148.8050 15.50291838397168 CXO 1 25867U 99040B 23138.86991982 .00000447 00000-0 00000-0 0 9994 2 25867 37.8749 200.6888 9051795 259.2103 359.8911 0.37811130 13079 ...Continue Reading

[TLELIST] Current TLEs

May 17th 2023 PDT

HST 1 20580U 90037B 23136.68688774 .00003577 00000-0 18691-3 0 9993 2 20580 28.4684 117.5629 0002535 42.4358 122.3271 15.13038839616687 ISS (ZARYA) 1 25544U 98067A 23137.39941361 .00010222 00000-0 18505-3 0 9991 2 25544 51.6402 121.1337 0006471 356.7928 158.8444 15.50266645397010 CXO 1 25867U 99040B 23138.86991982 .00000447 00000-0 00000-0 0 9994 2 25867 37.8749 200.6888 9051795 259.2103 359.8911 0.37811130 13079 ...Continue Reading

[TLELIST] Current TLEs

May 16th 2023 PDT

HST 1 20580U 90037B 23135.69777759 .00003783 00000-0 19827-3 0 9996 2 20580 28.4684 124.1423 0002492 32.2433 134.1930 15.13031889616531 ISS (ZARYA) 1 25544U 98067A 23136.42718310 .00012950 00000-0 23236-3 0 9997 2 25544 51.6405 125.9506 0006478 354.0426 132.0700 15.50251029396865 CXO 1 25867U 99040B 23136.22730015 .00000537 00000-0 00000-0 0 9990 2 25867 37.9070 201.0686 9048472 258.8950 0.1468 0.37811144 13068 ...Continue Reading

[TLELIST] Current TLEs

May 15th 2023 PDT

HST 1 20580U 90037B 23135.29378259 .00003928 00000-0 20629-3 0 9997 2 20580 28.4684 126.8297 0002472 28.2655 93.2702 15.13029165616736 ISS (ZARYA) 1 25544U 98067A 23135.39925984 .00013222 00000-0 23727-3 0 9997 2 25544 51.6403 131.0463 0006540 350.4210 155.2131 15.50224750396703 CXO 1 25867U 99040B 23136.22730015 .00000537 00000-0 00000-0 0 9990 2 25867 37.9070 201.0686 9048472 258.8950 0.1468 0.37811144 13068 ...Continue Reading

[TLELIST] Current TLEs

May 14th 2023 PDT

HST 1 20580U 90037B 23134.28596731 .00004379 00000-0 23122-3 0 9994 2 20580 28.4684 133.5338 0002414 17.8037 3.3547 15.13022088616580 ISS (ZARYA) 1 25544U 98067A 23134.36702060 .00013544 00000-0 24307-3 0 9993 2 25544 51.6405 136.1629 0006559 347.0403 154.1104 15.50197738396546 CXO 1 25867U 99040B 23136.22730015 .00000537 00000-0 00000-0 0 9990 2 25867 37.9070 201.0686 9048472 258.8950 0.1468 0.37811144 13068 ...Continue Reading

[TLELIST] Current TLEs

May 13th 2023 PDT

HST 1 20580U 90037B 23132.72916061 .00004773 00000-0 25303-3 0 9994 2 20580 28.4683 143.8886 0002329 0.0579 164.5370 15.13009840616081 ISS (ZARYA) 1 25544U 98067A 23133.33312763 .00014456 00000-0 25911-3 0 9991 2 25544 51.6398 141.2855 0006376 344.0215 143.5192 15.50172069396381 CXO 1 25867U 99040B 23133.58197526 .00000729 00000-0 00000-0 0 9993 2 25867 37.9294 201.3797 9044662 258.6477 359.9772 0.37810649 13052 ...Continue Reading

[TLELIST] Current TLEs

May 12th 2023 PDT

HST 1 20580U 90037B 23131.73731687 .00004860 00000-0 25789-3 0 9998 2 20580 28.4683 150.4855 0002277 348.8714 162.5883 15.13001322615934 ISS (ZARYA) 1 25544U 98067A 23132.42640824 .00014922 00000-0 26744-3 0 9995 2 25544 51.6400 145.7781 0006355 339.7698 124.4230 15.50147384396243 CXO 1 25867U 99040B 23133.58197526 .00000729 00000-0 00000-0 0 9993 2 25867 37.9294 201.3797 9044662 258.6477 359.9772 0.37810649 13052 ...Continue Reading

[TLELIST] Current TLEs

May 11th 2023 PDT

HST 1 20580U 90037B 23130.81727909 .00005400 00000-0 28770-3 0 9992 2 20580 28.4682 156.6049 0002246 338.4072 191.8380 15.12994430615795 ISS (ZARYA) 1 25544U 98067A 23131.19871300 .00014296 00000-0 25692-3 0 9998 2 25544 51.6398 151.8612 0006368 334.3982 114.1558 15.50107618396055 CXO 1 25867U 99040B 23133.58140069 .00000729 00000-0 00000-0 0 9993 2 25867 37.9313 201.3874 9044644 258.6391 359.8996 0.37812370 13044 ...Continue Reading
  • This mailing list is a public mailing list - anyone may join or leave, at any time.
  • This mailing list is announce-only.

International Space Station (ISS) / Hubble Space Telescope (HST) / Chandra X-Ray Observatory Orbital Data via EMAIL

Privacy Policy:

Private list